Weather in Ufa-Shigiri

Russia / Sverdlovsk Oblast     56°26′53″N   58°55′32″E
temp.,
°C
wind,
m/s
gust,
m/s
humid.,
%
clouds,
%
prec.,
mm/h
press.,
hPa
HPBL,
m
24 may, tue
tue2423:00+5sse149593 0.6 1002128
02:00+5s1296100 0.0 100482
05:00+5s1297100 0.0 100557
08:00+7sse128561 0.0 1006307
11:00+11sse346097 0.0 10061287
14:00+13ssw355499 0.0 10071651
17:00+13sw2458100 0.1 10081084
20:00+11s0074100 0.0 101011
25 may, wed
wed2523:00+9ese2489100 0.1 100999
02:00+9nne2699100 4.3 1008220
05:00+11e2898100 6.4 1006391
08:00+13se2693100 0.4 1005313
11:00+17ssw5137791 1.1 10041515
14:00+16sw3777100 0.9 1006868
17:00+15ene128552 2.7 1004231
20:00+15se71589100 1.7 1002732
26 may, thu
thu2623:00+10wsw4897100 2.9 1006558
02:00+6wsw269883 0.0 1008224
05:00+7sw2497100 0.1 1008399
08:00+7w2593100 0.1 1007468
11:00+6w4893100 0.3 1008510
14:00+9w676890 0.1 10091255
17:00+10w5961100 0.1 10101649
20:00+9w59665 0.1 10111137
27 may, fri
fri2723:00+5w411845 0.1 1013450
02:00+3sw29965 0.0 1014216
05:00+2sw299728 0.0 1015225
08:00+7sw4969100 0.0 1014740
11:00+11sw5757100 0.0 10141560
14:00+14ssw5747100 0.0 10131751
17:00+14ssw5750100 0.0 10121679
20:00+11ssw3867100 0.0 1012391
28 may, sat
sat2823:00+8sse2785100 0.0 1013147
02:00+8s31282100 0.0 1012401
05:00+9s31077100 0.0 1011669
08:00+10s4983100 0.1 1011648
11:00+12sw4782100 0.7 10121104
14:00+15wsw5666100 0.8 10131395
17:00+15w4765100 0.9 10141114
20:00+14wsw257457 0.0 1015265